Flag for Bulgaria Weather past 2 weeks in Plovdiv, Bulgaria

Now
45 °F

Fog.


Feels Like: 43 °F
Forecast: 33 / 54 °F
Wind: 3 mph from South

Location: Plovdiv Airport

Current Time: Mar 3, 2015 at 5:53:40 AM

Latest Report: Mar 3, 2015 at 5:00 AM


Visibility: 3 mi

Pressure: 29.86 "Hg

Humidity: 93%

Dew point: 43 °F

Location of PlovdivLocation

Historic Weather in Plovdiv — Graph

°F

Plovdiv temperature yesterday

Maximum temperature yesterday: 61 °F (at 5:00 PM)
Minimum temperature yesterday: 39 °F (at 3:01 AM)
Average temperature yesterday: 47 °F

Past Weeks' High & Low Weather Summary

 TemperatureHumidityPressure
High63 °F (Feb 28, 4:00 PM)100% (Feb 23, 7:00 PM)30.63 "Hg (Feb 23, 7:00 PM)
Low19 °F (Feb 18, 1:00 AM)19% (Feb 19, 10:00 AM)29.68 "Hg (Feb 24, 2:00 PM)
Average41 °F75%30.07 "Hg
* Reported Feb 16 4:00 AM — Mar 3 4:00 AM, Plovdiv, Weather by CustomWeather, © 2015

Note: Actual official high and low records may vary slightly from our data, if they occured in-between our weather recording intervals... More about our weather records

Advertising

Plovdiv weather history for previous 24 hours

 ConditionsComfort  
Time TempWeatherWind HumidityBarometerVisibility
4:00 AM
Tue, Mar 3
45 °FPassing clouds.2 mph93%29.86 "Hg4 mi
3:00 AM45 °FLight rain. Mostly cloudy.3 mph93%29.86 "Hg4 mi
2:00 AM45 °FLight rain. Mostly cloudy.6 mph93%29.89 "Hg6 mi
1:00 AM45 °FClear.8 mph93%29.83 "Hg10 mi
12:00 AM43 °FClear.No wind87%29.86 "Hg6 mi
11:00 PM
Mon, Mar 2
45 °FPassing clouds.3 mph81%29.86 "HgN/A
10:00 PM46 °FClear.No wind76%29.86 "Hg10 mi
9:00 PM45 °FClear.6 mph87%29.86 "Hg10 mi
8:00 PM46 °FClear.2 mph76%29.86 "Hg10 mi
7:00 PM50 °FPassing clouds.5 mph71%29.86 "HgN/A
6:00 PM57 °FScattered clouds.5 mph59%29.86 "HgN/A
5:00 PM61 °FSunny.10 mph48%29.86 "Hg10 mi
4:00 PM59 °FSunny.7 mph48%29.89 "Hg10 mi
3:00 PM59 °FPassing clouds.6 mph51%29.92 "HgN/A
2:00 PM57 °FPassing clouds.5 mph55%29.95 "HgN/A
1:00 PM55 °FSunny.2 mph63%29.98 "Hg10 mi
12:00 PM52 °FPassing clouds.6 mph67%29.98 "HgN/A
11:00 AM48 °FClear.2 mph76%30.01 "Hg4 mi
10:00 AM46 °FScattered clouds.5 mph82%30.04 "Hg4 mi
9:00 AM46 °FClear.7 mph76%30.01 "Hg4 mi
8:00 AM41 °FFog.3 mph93%30.04 "Hg1 mi
7:00 AM39 °FFog.3 mph100%30.04 "Hg2 mi
6:00 AM39 °FFog.No wind100%30.04 "Hg1 mi
5:04 AM39 °FFog.3 mph100%30.01 "Hg1 mi
5:00 AM39 °FFog.2 mph100%30.01 "Hg3 mi
Weather by CustomWeather, © 2015

See weather overviewHow to use our weather pages